TimeCST,TemperatureF,Dew PointF,Humidity,Sea Level PressureIn,VisibilityMPH,Wind Direction,Wind SpeedMPH,Gust SpeedMPH,PrecipitationIn,Events,Conditions,WindDirDegrees,DateUTC
12:55 AM,27.3,18.9,70,30.22,10.0,Calm,Calm,-,N/A,,Mostly Cloudy,0,2013-01-21 06:55:00
1:55 AM,27.0,19.8,74,30.23,10.0,Calm,Calm,-,N/A,,Clear,0,2013-01-21 07:55:00
2:55 AM,26.4,18.7,73,30.23,10.0,NW,5.8,-,N/A,,Clear,320,2013-01-21 08:55:00
3:55 AM,25.7,17.6,71,30.25,10.0,NW,5.8,-,N/A,,Partly Cloudy,310,2013-01-21 09:55:00
4:55 AM,25.7,19.0,76,30.25,10.0,NNW,5.8,-,N/A,,Scattered Clouds,330,2013-01-21 10:55:00
5:55 AM,25.5,19.4,78,30.26,10.0,NW,4.6,-,N/A,,Clear,320,2013-01-21 11:55:00
6:55 AM,25.3,18.9,76,30.29,10.0,NW,8.1,-,N/A,,Clear,310,2013-01-21 12:55:00
7:55 AM,26.1,17.4,70,30.32,10.0,NW,11.5,-,N/A,,Clear,310,2013-01-21 13:55:00
8:55 AM,27.3,16.3,63,30.33,10.0,NW,10.4,-,N/A,,Clear,310,2013-01-21 14:55:00
9:55 AM,28.6,16.9,62,30.35,10.0,WNW,12.7,-,N/A,,Clear,300,2013-01-21 15:55:00
10:55 AM,29.8,15.6,56,30.34,10.0,WNW,10.4,-,N/A,,Clear,300,2013-01-21 16:55:00
11:55 AM,31.8,12.4,45,30.30,10.0,West,9.2,17.3,N/A,,Clear,280,2013-01-21 17:55:00
12:55 PM,33.8,12.6,42,30.28,10.0,NNW,9.2,-,N/A,,Clear,330,2013-01-21 18:55:00
1:55 PM,35.1,12.4,39,30.27,10.0,WNW,12.7,-,N/A,,Clear,300,2013-01-21 19:55:00
2:55 PM,34.9,10.8,37,30.27,10.0,NW,12.7,20.7,N/A,,Clear,320,2013-01-21 20:55:00
3:55 PM,33.8,9.0,36,30.27,10.0,NW,12.7,-,N/A,,Clear,310,2013-01-21 21:55:00
4:55 PM,31.6,8.8,38,30.29,10.0,NW,8.1,-,N/A,,Clear,320,2013-01-21 22:55:00
5:55 PM,29.3,7.0,39,30.31,10.0,NW,9.2,-,N/A,,Clear,310,2013-01-21 23:55:00
6:55 PM,27.7,8.6,45,30.32,10.0,NNW,4.6,-,N/A,,Clear,340,2013-01-22 00:55:00
7:55 PM,23.0,13.5,67,30.32,10.0,North,4.6,-,N/A,,Clear,10,2013-01-22 01:55:00
8:55 PM,21.7,12.4,67,30.34,10.0,North,6.9,-,N/A,,Clear,360,2013-01-22 02:55:00
9:55 PM,22.3,11.1,62,30.34,10.0,Calm,Calm,-,N/A,,Mostly Cloudy,0,2013-01-22 03:55:00
10:55 PM,23.2,8.6,54,30.35,10.0,North,3.5,-,N/A,,Mostly Cloudy,350,2013-01-22 04:55:00
11:55 PM,23.2,7.7,52,30.34,10.0,NNW,8.1,-,N/A,,Overcast,340,2013-01-22 05:55:00